[[{"header":{"parameterUnit":"m.s-1","parameterCategory":1,"la1":30.2991,"la2":30.254,"lo1":-89.0895,"lo2":-89.0444,"dy":0.0017,"dx":0.0017,"nx":28,"ny":28,"refTime":"2026-02-08T09:00:00:Z","depth":0,"parameterNumber":2,"parameterNumberName":"U-component_of_WINDS"},"data":[0,0,0,0,0,0,0,0,0,0,0,0,0,0,0,0,0,0,0,0,0,0,0,0,0,0,0,0,0,0,0,0,0,0,0,0,0,0,0,0,0,0,0,0,0,0,0,0,0,0,0,0,0,0,0,0,0,0,-2.1636,-2.1636,0,-2.1591,-2.159,-2.159,-2.1511,-2.151,-2.1508,-2.1507,-2.1461,-2.1461,-2.1462,0,0,0,0,0,0,0,0,0,0,0,0,0,-2.1656,-2.1656,-2.1636,-2.1636,-2.1635,-2.1591,-2.159,-2.159,-2.1512,-2.151,-2.1508,-2.1506,-2.1461,-2.1461,-2.1462,0,0,0,0,0,0,0,0,0,0,0,0,0,-2.1633,-2.1656,-2.1636,-2.1591,-2.1586,-2.1591,-2.159,-2.159,-2.1512,-2.151,-2.1507,-2.1505,-2.1461,-2.1461,-2.1462,-2.1508,0,0,-2.1462,-2.1462,0,0,0,0,0,0,0,0,-2.1635,-2.1633,-2.1598,-2.1594,-2.1589,-2.1554,-2.1581,-2.1562,-2.1513,-2.154,-2.1507,-2.1504,-2.1494,-2.1492,-2.1488,-2.1505,-2.1504,-2.1462,-2.1463,-2.1463,-2.1463,0,0,0,0,0,0,0,-2.1636,-2.1634,-2.1618,-2.1598,-2.1592,-2.1573,-2.1567,-2.1577,-2.153,-2.1538,-2.1532,-2.1527,-2.1491,-2.1488,-2.1486,-2.1503,-2.1462,-2.1463,-2.1463,-2.1463,-2.1557,-2.1559,0,0,0,0,0,0,-2.1644,-2.1636,-2.162,-2.1617,-2.1607,-2.1575,-2.1568,-2.1568,-2.153,-2.1522,-2.1529,-2.1524,-2.1489,-2.1486,-2.1484,-2.1536,-2.1463,-2.1463,-2.1463,-2.1555,-2.1557,-2.156,0,0,0,0,0,0,-2.1645,-2.1644,-2.1622,-2.1625,-2.1621,-2.1577,-2.1577,-2.1568,-2.1564,-2.1524,-2.1515,-2.1534,-2.1487,-2.1484,-2.1503,-2.1533,-2.1463,-2.1463,-2.1552,-2.1555,-2.1559,-2.1639,0,0,0,0,0,0,-2.1646,-2.1644,-2.1661,-2.1626,-2.1621,-2.164,-2.1579,-2.1569,-2.1565,-2.1558,-2.1526,-2.1519,-2.1485,-2.1503,-2.1503,-2.1532,-2.1463,-2.1549,-2.1553,-2.1558,-2.1633,-2.1645,-2.1655,0,0,0,0,0,-2.1647,-2.1685,-2.1662,-2.1661,-2.164,-2.1642,-2.1639,-2.1599,-2.1568,-2.1584,-2.1558,-2.152,-2.153,-2.1505,-2.1505,-2.1535,-2.1547,-2.1552,-2.1557,-2.1629,-2.1642,-2.1654,0,0,0,0,0,0,-2.1725,-2.168,-2.1654,-2.1681,-2.1666,-2.1629,-2.1648,-2.1615,-2.1608,-2.1601,-2.1552,-2.1546,-2.1571,-2.1555,-2.1528,-2.1578,-2.1532,-2.1538,-2.1587,-2.16,-2.161,-2.1613,-2.1464,0,0,0,0,0,-2.1745,-2.175,-2.1711,-2.1739,-2.1733,-2.1692,-2.1691,-2.1662,-2.1644,-2.1637,-2.1613,-2.1597,-2.1597,-2.1598,-2.1595,-2.1631,-2.1623,-2.1652,-2.1663,-2.1671,-2.1676,-2.1695,-2.1707,-2.1577,-2.1577,-2.1577,0,0,-2.1787,-2.1763,-2.1769,-2.1754,-2.1739,-2.1745,-2.1687,-2.1696,-2.1701,-2.1639,-2.1654,-2.1637,-2.1616,-2.1644,-2.1655,-2.1631,-2.1711,-2.1678,-2.1686,-2.1685,-2.1701,-2.1714,-2.1725,-2.1581,-2.158,-2.158,0,0,-2.1867,-2.185,-2.1871,-2.1858,-2.1835,-2.1808,-2.1814,-2.1782,-2.1767,-2.1783,-2.1737,-2.1742,-2.1742,-2.173,-2.1724,-2.1802,-2.1766,-2.1802,-2.1857,-2.1875,-2.1886,-2.1894,-2.1922,-2.1932,-2.1808,-2.1808,-2.1808,0,-2.1922,-2.1929,-2.1887,-2.1899,-2.1894,-2.1839,-2.1861,-2.185,-2.1829,-2.1827,-2.1801,-2.1801,-2.1783,-2.1808,-2.1827,-2.1824,-2.1829,-2.1804,-2.1888,-2.1896,-2.1904,-2.1929,-2.194,-2.1812,-2.1812,-2.1811,-2.1811,0,-2.1998,-2.2004,-2.2025,-2.2005,-2.2003,-2.202,-2.1981,-2.1984,-2.1956,-2.1932,-2.1949,-2.1926,-2.1918,-2.1922,-2.1895,-2.1943,-2.1929,-2.1897,-2.185,-2.1921,-2.1944,-2.1954,-2.1819,-2.1817,-2.1816,-2.1815,0,0,-2.2123,-2.2081,-2.2089,-2.208,-2.2053,-2.2057,-2.2073,-2.2065,-2.2068,-2.2056,-2.2068,-2.2071,-2.2041,-2.2034,-2.2005,-2.2021,-2.2084,-2.1986,-2.1985,-2.2005,-2.2137,-2.216,-2.2172,-2.2062,-2.2063,-2.2065,-2.2138,0,-2.2195,-2.2218,-2.2182,-2.2214,-2.2219,-2.2169,-2.2182,-2.2167,-2.2146,-2.2148,-2.2125,-2.2128,-2.2088,-2.2084,-2.2098,-2.2074,-2.211,-2.2068,-2.2072,-2.2072,-2.2077,-2.2184,-2.2209,-2.2279,-2.2147,-2.2148,-2.2149,0,-2.2283,-2.2275,-2.2307,-2.2279,-2.228,-2.2293,-2.2284,-2.2286,-2.2269,-2.2253,-2.2247,-2.2213,-2.2227,-2.2183,-2.2202,-2.2175,-2.2174,-2.2163,-2.2165,-2.2162,-2.2114,-2.2184,-2.2301,-2.2311,-2.2163,-2.2162,-2.2161,0,-2.237,-2.2368,-2.2387,-2.2381,-2.2348,-2.2359,-2.2346,-2.2326,-2.2325,-2.2318,-2.2316,-2.2311,-2.2308,-2.2305,-2.227,-2.2242,-2.2294,-2.2247,-2.228,-2.2281,-2.2292,-2.2291,-2.2409,-2.2295,-2.2294,-2.2294,-2.2294,0,-2.2454,-2.2475,-2.2425,-2.2437,-2.246,-2.2419,-2.2443,-2.2425,-2.2409,-2.2417,-2.2374,-2.2382,-2.2337,-2.2341,-2.2315,-2.2335,-2.2334,-2.2321,-2.2314,-2.2324,-2.2326,-2.2322,-2.2316,-2.2297,-2.2296,-2.2296,-2.2295,0,-2.2553,-2.2521,-2.2538,-2.2507,-2.25,-2.2518,-2.2492,-2.2502,-2.2479,-2.2489,-2.249,-2.2454,-2.2456,-2.2423,-2.2419,-2.2401,-2.2433,-2.2417,-2.2438,-2.2433,-2.2467,-2.2464,-2.2586,-2.26,-2.2478,-2.2479,-2.248,0,-2.2608,-2.2624,-2.2595,-2.2597,-2.2586,-2.259,-2.2588,-2.2549,-2.2549,-2.2532,-2.2545,-2.2544,-2.2541,-2.2548,-2.2522,-2.2519,-2.2502,-2.2545,-2.2501,-2.2512,-2.2502,-2.2501,-2.2502,-2.2554,-2.2555,-2.2557,-2.2558,0,-2.2709,-2.2693,-2.2691,-2.2686,-2.2685,-2.2678,-2.2669,-2.2674,-2.2631,-2.2634,-2.2636,-2.2634,-2.2631,-2.263,-2.2623,-2.261,-2.2577,-2.2572,-2.2579,-2.2589,-2.26,-2.2594,-2.2462,-2.2569,-2.2568,-2.2567,-2.2566,-2.2566,-2.2787,-2.2799,-2.278,-2.2781,-2.277,-2.2763,-2.2771,-2.275,-2.2751,-2.2744,-2.2722,-2.2728,-2.2713,-2.2699,-2.269,-2.2695,-2.2674,-2.2685,-2.2687,-2.269,-2.2696,-2.2602,-2.2694,-2.2693,-2.2693,-2.2693,-2.2692,0,-2.2885,-2.2871,-2.2872,-2.2861,-2.2862,-2.2831,-2.282,-2.2823,-2.2829,-2.2817,-2.2815,-2.2819,-2.2819,-2.2794,-2.2791,-2.28,-2.2785,-2.2801,-2.2799,-2.2797,-2.2715,-2.2709,-2.2813,-2.2813,-2.2813,-2.2813,-2.2813,-2.2813,-2.2935,-2.2953,-2.2935,-2.2948,-2.2934,-2.294,-2.2936,-2.293,-2.292,-2.2926,-2.2926,-2.291,-2.2893,-2.2889,-2.2888,-2.2881,-2.2882,-2.2902,-2.289,-2.2814,-2.2802,-2.2791,-2.2785,-2.2903,-2.2903,-2.297,-2.2971,-2.2972]},{"header":{"parameterUnit":"m.s-1","parameterCategory":1,"la1":30.2991,"la2":30.254,"lo1":-89.0895,"lo2":-89.0444,"dy":0.0017,"dx":0.0017,"nx":28,"ny":28,"refTime":"2026-02-08T09:00:00:Z","depth":0,"parameterNumber":3,"parameterNumberName":"V-component_of_WINDS"},"data":[0,0,0,0,0,0,0,0,0,0,0,0,0,0,0,0,0,0,0,0,0,0,0,0,0,0,0,0,0,0,0,0,0,0,0,0,0,0,0,0,0,0,0,0,0,0,0,0,0,0,0,0,0,0,0,0,0,0,0.3834,0.3835,0,0.3863,0.3863,0.3864,0.393,0.3932,0.3933,0.3934,0.3958,0.3958,0.3957,0,0,0,0,0,0,0,0,0,0,0,0,0,0.3834,0.3834,0.3834,0.3835,0.3835,0.3863,0.3863,0.3864,0.393,0.3932,0.3933,0.3935,0.3959,0.3958,0.3957,0,0,0,0,0,0,0,0,0,0,0,0,0,0.3845,0.3834,0.3834,0.3872,0.3875,0.3863,0.3863,0.3864,0.393,0.3932,0.3934,0.3936,0.3959,0.3958,0.3957,0.3909,0,0,0.3954,0.3954,0,0,0,0,0,0,0,0,0.3845,0.3845,0.3866,0.3869,0.3873,0.3895,0.3872,0.3879,0.3929,0.3909,0.3934,0.3937,0.3935,0.3936,0.3937,0.391,0.3911,0.3954,0.3953,0.3953,0.3953,0,0,0,0,0,0,0,0.3844,0.3845,0.3846,0.3866,0.387,0.3886,0.389,0.3874,0.391,0.3911,0.3916,0.3918,0.3938,0.3938,0.3938,0.3912,0.3954,0.3953,0.3952,0.3952,0.3849,0.3847,0,0,0,0,0,0,0.3838,0.3843,0.3845,0.3846,0.3864,0.3884,0.3889,0.3886,0.391,0.3916,0.3917,0.3921,0.3938,0.3939,0.3939,0.3886,0.3953,0.3952,0.3951,0.3851,0.3848,0.3846,0,0,0,0,0,0,0.3838,0.3838,0.3844,0.3846,0.3848,0.3882,0.3878,0.3885,0.3886,0.3915,0.3921,0.391,0.394,0.3941,0.3917,0.3888,0.3951,0.3951,0.3853,0.385,0.3847,0.3778,0,0,0,0,0,0,0.3838,0.3837,0.382,0.3846,0.3848,0.3821,0.3877,0.3884,0.3884,0.3891,0.3911,0.3916,0.3942,0.3918,0.3916,0.3888,0.395,0.3856,0.3852,0.3848,0.3783,0.3773,0.3765,0,0,0,0,0,0.3837,0.3798,0.3819,0.3819,0.3827,0.382,0.3821,0.3853,0.3882,0.3864,0.3884,0.3915,0.3891,0.3915,0.3913,0.3884,0.3858,0.3853,0.3848,0.3788,0.3775,0.3765,0,0,0,0,0,0,0.3766,0.3802,0.3825,0.3793,0.3803,0.3831,0.381,0.3839,0.3839,0.3845,0.3884,0.3888,0.3859,0.3869,0.3895,0.384,0.388,0.3874,0.3834,0.3823,0.3814,0.3812,0.3949,0,0,0,0,0,0.3747,0.3739,0.377,0.3739,0.3743,0.3775,0.3773,0.3798,0.3809,0.3813,0.383,0.3838,0.3833,0.3828,0.3825,0.3785,0.3791,0.3765,0.3755,0.3747,0.3742,0.3723,0.3712,0.383,0.383,0.383,0,0,0.3706,0.3725,0.3717,0.3725,0.3736,0.3726,0.3778,0.3765,0.3758,0.381,0.379,0.3803,0.3815,0.3783,0.377,0.3791,0.3711,0.3741,0.3735,0.3734,0.3717,0.3706,0.3696,0.3827,0.3827,0.3828,0,0,0.3628,0.3641,0.3617,0.3628,0.3644,0.3666,0.366,0.3684,0.3696,0.3676,0.3716,0.3707,0.3697,0.3704,0.3707,0.3634,0.3663,0.3631,0.3582,0.3563,0.3554,0.3545,0.352,0.351,0.3626,0.3626,0.3626,0,0.3575,0.3563,0.3601,0.3586,0.3589,0.3638,0.3614,0.3621,0.3634,0.3635,0.3658,0.3648,0.3659,0.3631,0.3614,0.3614,0.3608,0.3629,0.3552,0.3544,0.3537,0.3514,0.3504,0.3622,0.3622,0.3623,0.3623,0,0.3498,0.3489,0.3468,0.3483,0.3482,0.3463,0.3497,0.3492,0.3517,0.3537,0.3517,0.3532,0.3534,0.3529,0.3552,0.3504,0.3517,0.3545,0.3586,0.3522,0.35,0.3491,0.3616,0.3618,0.3619,0.362,0,0,0.3374,0.3412,0.3403,0.3411,0.3433,0.3427,0.341,0.3413,0.3409,0.3417,0.3403,0.3395,0.3422,0.3425,0.3449,0.3433,0.3375,0.3464,0.3465,0.3447,0.3325,0.3303,0.3292,0.3395,0.3394,0.3392,0.3324,0,0.3301,0.3276,0.331,0.3277,0.327,0.3317,0.3302,0.3314,0.3332,0.3328,0.3348,0.3341,0.3378,0.338,0.3366,0.3385,0.3351,0.3391,0.3382,0.3382,0.3378,0.3281,0.3257,0.3192,0.3316,0.3314,0.3313,0,0.3213,0.3219,0.3186,0.3212,0.321,0.3197,0.3204,0.3199,0.3213,0.3228,0.3232,0.3262,0.3247,0.3287,0.3267,0.3293,0.3292,0.3301,0.3299,0.3299,0.3343,0.3279,0.3172,0.3162,0.33,0.3301,0.3302,0,0.3127,0.3127,0.3107,0.3112,0.3142,0.3132,0.3144,0.316,0.3161,0.3166,0.3167,0.317,0.3171,0.3173,0.3203,0.3229,0.3179,0.3221,0.319,0.3189,0.3177,0.3177,0.3069,0.3175,0.3176,0.3176,0.3176,0,0.3042,0.302,0.3069,0.3057,0.3034,0.3073,0.3049,0.3065,0.308,0.3072,0.3112,0.3103,0.3143,0.3138,0.3161,0.3141,0.3141,0.3152,0.3159,0.3149,0.3148,0.3149,0.3154,0.3173,0.3174,0.3174,0.3175,0,0.2942,0.2974,0.2956,0.2987,0.2994,0.2976,0.3002,0.2992,0.3013,0.3002,0.3002,0.3035,0.3032,0.3062,0.3064,0.308,0.3049,0.3063,0.3044,0.3049,0.3016,0.3019,0.2905,0.2892,0.3006,0.3005,0.3004,0,0.2886,0.287,0.29,0.2898,0.2909,0.2905,0.2907,0.2945,0.2945,0.2961,0.2949,0.295,0.2952,0.2944,0.2968,0.2969,0.2984,0.2944,0.2984,0.2976,0.2984,0.2985,0.2984,0.2935,0.2934,0.2933,0.2932,0,0.2783,0.28,0.2802,0.2809,0.2811,0.2818,0.2827,0.2823,0.2865,0.2863,0.2861,0.2863,0.2866,0.2866,0.2873,0.2884,0.2914,0.2919,0.2912,0.2902,0.2892,0.2898,0.3022,0.2921,0.2922,0.2923,0.2924,0.2924,0.2703,0.2692,0.2713,0.2713,0.2725,0.2734,0.2727,0.2749,0.2748,0.2755,0.2778,0.2772,0.2788,0.2801,0.281,0.2805,0.2825,0.2814,0.2812,0.2808,0.2803,0.2893,0.2806,0.2807,0.2807,0.2807,0.2808,0,0.2603,0.2619,0.262,0.2633,0.2634,0.2665,0.2678,0.2676,0.2671,0.2685,0.2687,0.2685,0.2686,0.2711,0.2714,0.2706,0.272,0.2706,0.2707,0.2709,0.2785,0.2791,0.2694,0.2694,0.2694,0.2694,0.2694,0.2694,0.2551,0.2535,0.2555,0.2545,0.2561,0.2557,0.2562,0.257,0.2582,0.2579,0.258,0.2597,0.2615,0.2621,0.2623,0.263,0.2629,0.261,0.2622,0.2692,0.2703,0.2714,0.272,0.261,0.2609,0.2546,0.2546,0.2545]}]]